Погода в Кречетове

Россия / Архангельская область     60°56′50″N   38°30′39″E
темп.,
°C
ветер,
м/с
пор.,
м/с
влажн.,
%
обл.,
%
осадки,
мм/ч
давл.,
гПа
погр.,
м
25 июля, вс
вс2500:00+11з2861100 0.0 1015206
03:00+12зюз31159100 0.0 1015364
06:00+13зюз3965100 0.0 1015349
09:00+17з354928 0.0 1015720
12:00+19з4639100 0.0 10162300
15:00+20зсз3640100 0.0 10162128
18:00+17зюз2660100 0.0 1017180
21:00+13зюз25785 0.1 101786
26 июля, пн
пн2600:00+12зюз298890 0.0 1017154
03:00+15з31071100 0.0 1017332
06:00+15з287675 0.0 1018280
09:00+21з364916 0.0 10171082
12:00+16ссз258590 0.4 1018168
15:00+20сз487573 1.8 1017902
18:00+19с377659 0.9 1018468
21:00+14с22952 2.0 101929
27 июля, вт
вт2700:00+12с11955 0.0 102110
03:00+12ссв1194100 0.0 102127
06:00+12св149241 0.0 1022146
09:00+17св125797 0.0 1021502
12:00+21с234696 0.0 10201094
15:00+24ссз273728 0.0 10182394
18:00+23с35396 0.0 10171393
21:00+15с01678 0.0 101711
28 июля, ср
ср2800:00+13сз22745 0.0 101813
03:00+11зсз11806 0.0 101710
06:00+15зюз116916 0.0 101655
09:00+22юз23435 0.0 1014661
12:00+26зюз35335 0.0 10112115
15:00+26з3635100 0.0 10092214
18:00+26зсз36370 0.0 10072204
21:00+18зсз11671 0.0 100711
29 июля, чт
чт2900:00+16юз22735 0.0 100635
03:00+15зюз11846 0.0 100517
06:00+17юз258114 0.0 1004137
09:00+23юз345937 0.0 1003611
12:00+26юз344397 0.0 10021757
15:00+26ююз554389 0.0 10002121
18:00+25ююз5749100 0.0 9991466
21:00+16юз3998100 4.6 999295